User: anonymous   Login
Location: Caltech
(34.1382°N, 118.1253°W)
Time: 18:49:09
(UTC-07:00)
Language:

Cosmos 1939 Rocket - Orbit

View from above orbital plane
View from above orbital plane
View from above satellite
View from above satellite

Ground track
Ground track

The orbit data is extracted from the following two-line orbital elements,

1 19046U 88032B   16208.51702840 -.00000432  00000-0 -27837-4 0  9997
2 19046  97.5782 257.9163 0039657   4.2630 355.8924 15.01964363523754
Epoch (UTC): 26 July 2016 12:24:31
Eccentricity: 0.0039657
inclination: 97.5782°
perigee height: 533 km
apogee height: 588 km
right ascension of ascending node: 257.9163°
argument of perigee: 4.2630°
revolutions per day: 15.01964363
mean anomaly at epoch: 355.8924°
orbit number at epoch: 52375

The dashed part of the orbit path shows where the satellite is in the earth's shadow,  

DLR